カタログに戻る

OV1-20/OV1-21 DEB

運用中PO
NORAD 5384·DEBRIS·🇺🇸 United States

打ち上げ Aug 7, 1971 から Vandenberg Space Force Base

Loading…

次のパス (今後24時間)

TLE

最新Source: Space-Track

元期: Sep 14, 2026, 13:55 UTC

1 05384U 71067N   26257.58042133  .00000218  00000-0  81931-4 0  9996
2 05384  87.6337   9.4767 0080152 144.2478 216.4119 14.25330898855965

AllMySatでOV1-20/OV1-21 DEBをリアルタイム追跡

Download on the App Store